Location: Munich
(48.1349°N, 11.5617°E)
Time: 03:35:14
(UTC+02:00)

ISS - Visible Passes

Search period start: 21 September 2017 00:00
Search period end: 01 October 2017 00:00
Orbit: 402 x 407 km, 51.6° (Epoch: 21 September)

Date Brightness Start Highest point End Pass type
(mag) Time Alt. Az. Time Alt. Az. Time Alt. Az.
21 Sep -1.2 04:59:40 12° SSE 04:59:40 12° SSE 04:59:59 10° SSE visible
25 Sep -1.2 21:18:54 10° SW 21:19:25 14° SW 21:19:25 14° SW visible
26 Sep -2.8 20:26:57 10° SSW 20:29:45 28° SE 20:29:45 28° SE visible
27 Sep -2.0 19:35:23 10° S 19:37:36 17° SE 19:39:49 10° E visible
27 Sep -2.6 21:10:24 10° WSW 21:12:33 38° WSW 21:12:33 38° WSW visible
28 Sep -3.7 20:18:06 10° SW 20:21:19 54° SSE 20:22:31 32° E visible
28 Sep -0.7 21:54:38 10° W 21:55:11 14° W 21:55:11 14° W visible
29 Sep -2.9 19:26:02 10° SSW 19:29:00 33° SE 19:31:59 10° E visible
29 Sep -3.3 21:02:06 10° W 21:05:01 57° NW 21:05:01 57° NW visible
30 Sep -3.9 20:09:37 10° WSW 20:12:53 86° NNW 20:14:44 24° ENE visible
30 Sep -0.9 21:46:26 10° WNW 21:47:23 17° WNW 21:47:23 17° WNW visible
